Radiation Dose at Monitoring Post of Fukushima Daini Nuclear Power Station
Date,Time,MP-1(microSv/h),MP-2(microSv/h),MP-3(microSv/h),MP-4(microSv/h),MP-5(microSv/h),MP-6(microSv/h),MP-7(microSv/h),Wind Direction,Wind Velocity(m/s),Rain
2022/05/04,00:00,0.150,0.140,0.220,0.213,0.219,0.120,0.077,south-southwest,4.5,No
2022/05/04,00:10,0.150,0.139,0.221,0.213,0.219,0.120,0.077,south-southwest,4.3,No
2022/05/04,00:20,0.151,0.139,0.219,0.213,0.219,0.120,0.077,south-southwest,4.9,No
2022/05/04,00:30,0.150,0.139,0.219,0.212,0.220,0.120,0.078,south-southwest,4.5,No
2022/05/04,00:40,0.150,0.139,0.219,0.213,0.219,0.121,0.077,south-southwest,4.7,No
2022/05/04,00:50,0.151,0.139,0.220,0.213,0.219,0.120,0.077,south-southwest,4.9,No
2022/05/04,01:00,0.150,0.140,0.220,0.213,0.218,0.120,0.077,south-southwest,4.0,No
2022/05/04,01:10,0.150,0.139,0.220,0.213,0.218,0.120,0.078,south-southwest,4.5,No
2022/05/04,01:20,0.151,0.139,0.219,0.212,0.221,0.121,0.077,south-southwest,5.1,No
2022/05/04,01:30,0.150,0.139,0.220,0.214,0.218,0.120,0.077,south-southwest,4.7,No
2022/05/04,01:40,0.151,0.140,0.220,0.213,0.219,0.120,0.077,south,4.0,No
2022/05/04,01:50,0.151,0.139,0.220,0.212,0.220,0.120,0.077,south,3.2,No
2022/05/04,02:00,0.151,0.140,0.220,0.214,0.219,0.120,0.077,south-southeast,3.3,No
2022/05/04,02:10,0.151,0.140,0.220,0.213,0.219,0.120,0.078,south-southeast,4.0,No
2022/05/04,02:20,0.150,0.140,0.220,0.214,0.220,0.121,0.077,south,3.9,No
2022/05/04,02:30,0.150,0.140,0.220,0.213,0.219,0.120,0.077,south-southeast,3.7,No
2022/05/04,02:40,0.150,0.139,0.220,0.213,0.219,0.120,0.077,south-southeast,3.4,No
2022/05/04,02:50,0.151,0.139,0.220,0.213,0.218,0.121,0.077,south-southeast,3.6,No
2022/05/04,03:00,0.151,0.139,0.220,0.214,0.219,0.120,0.078,south-southeast,4.0,No
2022/05/04,03:10,0.150,0.139,0.220,0.214,0.219,0.121,0.077,south-southeast,3.4,No
2022/05/04,03:20,0.151,0.139,0.220,0.213,0.218,0.121,0.077,south-southeast,3.7,No
2022/05/04,03:30,0.151,0.140,0.220,0.213,0.218,0.121,0.077,south-southeast,4.1,No
2022/05/04,03:40,0.150,0.140,0.220,0.215,0.219,0.120,0.077,south-southeast,4.2,No
2022/05/04,03:50,0.151,0.140,0.220,0.214,0.218,0.121,0.077,south-southeast,4.4,No
2022/05/04,04:00,0.151,0.139,0.220,0.213,0.218,0.121,0.078,south-southeast,3.8,No
2022/05/04,04:10,0.150,0.140,0.221,0.214,0.220,0.120,0.077,south-southeast,4.9,No
2022/05/04,04:20,0.151,0.139,0.220,0.213,0.218,0.121,0.077,south-southeast,5.7,No
2022/05/04,04:30,0.151,0.140,0.220,0.213,0.219,0.119,0.078,south-southeast,5.9,No
2022/05/04,04:40,0.150,0.140,0.220,0.215,0.219,0.120,0.078,south-southeast,5.8,No
2022/05/04,04:50,0.151,0.140,0.221,0.213,0.217,0.121,0.078,south-southeast,6.4,No
2022/05/04,05:00,0.151,0.139,0.220,0.213,0.219,0.121,0.077,south,5.9,No
2022/05/04,05:10,0.150,0.140,0.219,0.213,0.219,0.120,0.078,south-southeast,6.4,No
2022/05/04,05:20,0.151,0.140,0.221,0.214,0.218,0.120,0.078,south-southeast,7.0,No
2022/05/04,05:30,0.151,0.139,0.220,0.214,0.219,0.120,0.078,south-southeast,6.8,No
2022/05/04,05:40,0.150,0.140,0.220,0.213,0.219,0.121,0.078,south-southeast,7.3,No
2022/05/04,05:50,0.151,0.140,0.220,0.214,0.218,0.120,0.077,south-southeast,7.3,No
2022/05/04,06:00,0.150,0.139,0.220,0.213,0.221,0.121,0.078,south-southeast,6.6,No
2022/05/04,06:10,0.151,0.140,0.219,0.213,0.219,0.120,0.077,south-southeast,6.5,No
2022/05/04,06:20,0.150,0.139,0.220,0.214,0.219,0.120,0.078,south-southeast,7.2,No
2022/05/04,06:30,0.149,0.139,0.219,0.213,0.219,0.121,0.077,south-southeast,6.9,No
2022/05/04,06:40,0.150,0.139,0.220,0.213,0.218,0.120,0.077,south-southeast,6.5,No
2022/05/04,06:50,0.150,0.140,0.220,0.213,0.220,0.120,0.077,south,7.9,No
2022/05/04,07:00,0.150,0.139,0.220,0.212,0.218,0.121,0.077,south,8.9,No
2022/05/04,07:10,0.151,0.139,0.219,0.213,0.220,0.121,0.077,south-southeast,8.2,No
2022/05/04,07:20,0.150,0.139,0.219,0.212,0.218,0.120,0.077,south-southeast,7.8,No
2022/05/04,07:30,0.150,0.139,0.218,0.213,0.220,0.119,0.076,south-southeast,8.1,No
2022/05/04,07:40,0.150,0.138,0.220,0.212,0.218,0.120,0.077,south-southeast,8.2,No
2022/05/04,07:50,0.151,0.139,0.219,0.213,0.218,0.120,0.077,south-southeast,7.8,No
2022/05/04,08:00,0.149,0.138,0.217,0.213,0.220,0.120,0.076,south-southeast,8.3,No
2022/05/04,08:10,0.150,0.139,0.219,0.211,0.219,0.120,0.077,south-southeast,9.0,No
2022/05/04,08:20,0.149,0.137,0.220,0.213,0.218,0.120,0.077,south-southeast,9.5,No
2022/05/04,08:30,0.150,0.140,0.217,0.210,0.220,0.119,0.078,south-southeast,9.0,No
2022/05/04,08:40,0.150,0.139,0.220,0.212,0.217,0.120,0.076,south-southeast,8.9,No
2022/05/04,08:50,0.148,0.139,0.219,0.212,0.218,0.121,0.077,south-southeast,8.7,No
2022/05/04,09:00,0.149,0.139,0.217,0.211,0.219,0.120,0.077,south-southeast,9.0,No
2022/05/04,09:10,0.150,0.138,0.217,0.212,0.217,0.120,0.076,south-southeast,8.7,No
2022/05/04,09:20,0.149,0.139,0.220,0.212,0.220,0.121,0.076,south-southeast,8.8,No
2022/05/04,09:30,0.149,0.140,0.219,0.212,0.219,0.120,0.077,south-southeast,9.0,No
2022/05/04,09:40,0.149,0.138,0.218,0.212,0.217,0.121,0.077,south-southeast,10.1,No
2022/05/04,09:50,0.149,0.138,0.217,0.214,0.220,0.120,0.077,south-southeast,9.5,No
2022/05/04,10:00,0.148,0.139,0.219,0.213,0.218,0.119,0.077,south-southeast,10.3,No
2022/05/04,10:10,0.150,0.138,0.220,0.211,0.217,0.121,0.076,south-southeast,10.6,No
2022/05/04,10:20,0.150,0.140,0.219,0.214,0.220,0.120,0.078,south-southeast,11.7,No
2022/05/04,10:30,0.149,0.140,0.218,0.214,0.220,0.119,0.077,south-southeast,13.4,No
2022/05/04,10:40,0.150,0.138,0.218,0.213,0.217,0.121,0.077,south-southeast,11.2,No
2022/05/04,10:50,0.151,0.139,0.222,0.213,0.219,0.120,0.077,south-southeast,12.2,No
2022/05/04,11:00,0.150,0.139,0.220,0.214,0.218,0.120,0.076,south-southeast,11.2,No
2022/05/04,11:10,0.149,0.139,0.219,0.213,0.217,0.121,0.077,south-southeast,10.7,No
2022/05/04,11:20,0.150,0.139,0.219,0.214,0.220,0.121,0.077,south-southeast,11.2,No
2022/05/04,11:30,0.151,0.140,0.222,0.215,0.220,0.120,0.076,south-southeast,13.3,No
2022/05/04,11:40,0.149,0.139,0.220,0.214,0.219,0.121,0.077,south-southeast,13.3,No
2022/05/04,11:50,0.150,0.139,0.219,0.213,0.218,0.121,0.077,south-southeast,14.0,No
2022/05/04,12:00,0.151,0.138,0.218,0.214,0.219,0.120,0.077,south-southeast,12.5,No
2022/05/04,12:10,0.150,0.139,0.222,0.213,0.218,0.119,0.077,south-southeast,13.4,No
2022/05/04,12:20,0.149,0.139,0.221,0.214,0.218,0.121,0.078,south-southeast,11.2,No
2022/05/04,12:30,0.150,0.139,0.218,0.214,0.220,0.120,0.076,south-southeast,10.7,No
2022/05/04,12:40,0.151,0.140,0.218,0.212,0.218,0.120,0.077,south,9.5,No
2022/05/04,12:50,0.150,0.140,0.223,0.214,0.217,0.121,0.077,south-southeast,11.2,No
2022/05/04,13:00,0.150,0.140,0.222,0.214,0.218,0.121,0.077,south-southeast,10.4,No
2022/05/04,13:10,0.149,0.139,0.219,0.213,0.221,0.121,0.078,south-southeast,11.7,No
2022/05/04,13:20,0.151,0.141,0.219,0.212,0.219,0.120,0.077,south-southeast,11.4,No
2022/05/04,13:30,0.151,0.140,0.218,0.213,0.218,0.121,0.077,south-southeast,11.7,No
2022/05/04,13:40,0.150,0.139,0.218,0.216,0.217,0.121,0.077,south,10.6,No
2022/05/04,13:50,0.149,0.139,0.220,0.214,0.219,0.122,0.077,south,10.1,No
2022/05/04,14:00,0.149,0.141,0.221,0.214,0.221,0.120,0.077,south,10.9,No
2022/05/04,14:10,0.150,0.139,0.222,0.212,0.220,0.120,0.077,south-southeast,8.7,No
2022/05/04,14:20,0.151,0.140,0.220,0.215,0.218,0.121,0.078,south-southeast,10.7,No
2022/05/04,14:30,0.151,0.139,0.220,0.217,0.217,0.121,0.076,south,9.5,No
2022/05/04,14:40,0.150,0.140,0.219,0.215,0.219,0.120,0.077,south-southeast,10.7,No
2022/05/04,14:50,0.148,0.140,0.219,0.213,0.219,0.120,0.078,south-southeast,12.0,No
2022/05/04,15:00,0.151,0.139,0.222,0.215,0.221,0.121,0.077,south-southeast,10.1,No
2022/05/04,15:10,0.151,0.140,0.223,0.216,0.219,0.120,0.077,south,9.6,No
2022/05/04,15:20,0.151,0.140,0.219,0.213,0.218,0.121,0.078,south,10.6,No
2022/05/04,15:30,0.150,0.140,0.220,0.213,0.216,0.121,0.077,south,9.2,No
2022/05/04,15:40,0.148,0.139,0.223,0.216,0.220,0.121,0.077,south,7.7,No
2022/05/04,15:50,0.151,0.141,0.222,0.215,0.221,0.121,0.078,south,7.6,No
2022/05/04,16:00,0.152,0.139,0.221,0.214,0.220,0.121,0.078,south,7.0,No
2022/05/04,16:10,0.151,0.139,0.223,0.217,0.219,0.120,0.077,south-southwest,5.9,No
2022/05/04,16:20,0.149,0.141,0.222,0.215,0.218,0.121,0.077,south,6.1,No
2022/05/04,16:30,0.150,0.139,0.220,0.216,0.218,0.121,0.077,south,5.5,No
2022/05/04,16:40,0.150,0.140,0.223,0.216,0.217,0.121,0.077,south,5.2,No
2022/05/04,16:50,0.152,0.141,0.222,0.215,0.218,0.120,0.077,south-southwest,5.1,No
2022/05/04,17:00,0.150,0.139,0.221,0.215,0.217,0.122,0.078,south-southwest,4.0,No
2022/05/04,17:10,0.152,0.140,0.223,0.215,0.221,0.121,0.077,south-southwest,4.7,No
2022/05/04,17:20,0.152,0.139,0.220,0.213,0.222,0.120,0.078,south-southwest,3.8,No
2022/05/04,17:30,0.150,0.139,0.222,0.215,0.220,0.121,0.077,south-southwest,2.9,No
2022/05/04,17:40,0.152,0.141,0.222,0.215,0.218,0.121,0.078,southwest,2.6,No
2022/05/04,17:50,0.151,0.140,0.223,0.216,0.222,0.120,0.078,west-southwest,2.6,No
2022/05/04,18:00,0.150,0.140,0.222,0.215,0.219,0.121,0.078,west-southwest,1.6,No
2022/05/04,18:10,0.151,0.139,0.221,0.214,0.219,0.120,0.078,south-southeast,2.6,No
2022/05/04,18:20,0.150,0.141,0.221,0.216,0.223,0.122,0.077,south,2.5,No
2022/05/04,18:30,0.152,0.140,0.221,0.214,0.219,0.120,0.078,west,1.2,No
2022/05/04,18:40,0.150,0.140,0.223,0.216,0.222,0.121,0.078,southwest,1.2,No
2022/05/04,18:50,0.152,0.140,0.222,0.215,0.219,0.122,0.078,west,1.1,No
2022/05/04,19:00,0.152,0.140,0.222,0.216,0.221,0.121,0.077,south-southwest,0.6,No
2022/05/04,19:10,0.152,0.140,0.223,0.215,0.221,0.120,0.078,south-southeast,2.2,No
2022/05/04,19:20,0.150,0.140,0.222,0.216,0.221,0.121,0.077,south-southeast,1.7,No
2022/05/04,19:30,0.151,0.142,0.223,0.215,0.221,0.121,0.077,south-southwest,2.0,No
2022/05/04,19:40,0.151,0.140,0.222,0.216,0.221,0.121,0.077,south-southwest,1.6,No
2022/05/04,19:50,0.151,0.142,0.222,0.216,0.219,0.120,0.078,south-southwest,1.5,No
2022/05/04,20:00,0.150,0.140,0.223,0.215,0.221,0.121,0.078,west-southwest,2.0,No
2022/05/04,20:10,0.152,0.141,0.223,0.217,0.220,0.122,0.077,west-southwest,2.2,No
2022/05/04,20:20,0.151,0.141,0.222,0.216,0.221,0.121,0.078,west-southwest,3.5,No
2022/05/04,20:30,0.152,0.141,0.222,0.217,0.220,0.122,0.078,west-southwest,4.1,No
2022/05/04,20:40,0.151,0.141,0.224,0.216,0.222,0.121,0.077,west-southwest,3.7,No
2022/05/04,20:50,0.152,0.141,0.221,0.215,0.220,0.121,0.078,west-southwest,2.7,No
2022/05/04,21:00,0.151,0.140,0.223,0.216,0.221,0.122,0.079,west-southwest,2.4,No
2022/05/04,21:10,0.153,0.140,0.223,0.215,0.219,0.121,0.078,west-southwest,3.3,No
2022/05/04,21:20,0.153,0.140,0.223,0.217,0.221,0.121,0.077,west-southwest,4.4,No
2022/05/04,21:30,0.151,0.140,0.223,0.214,0.219,0.122,0.078,west-southwest,4.7,No
2022/05/04,21:40,0.152,0.141,0.221,0.216,0.221,0.122,0.078,west,5.8,No
2022/05/04,21:50,0.151,0.140,0.224,0.217,0.219,0.121,0.077,west,5.7,No
2022/05/04,22:00,0.153,0.141,0.223,0.215,0.220,0.120,0.078,west-southwest,5.1,No
2022/05/04,22:10,0.151,0.141,0.222,0.216,0.221,0.121,0.077,west-southwest,4.2,No
2022/05/04,22:20,0.153,0.140,0.223,0.216,0.220,0.122,0.077,southwest,2.8,No
2022/05/04,22:30,0.151,0.141,0.223,0.216,0.221,0.121,0.078,west-southwest,4.4,No
2022/05/04,22:40,0.152,0.140,0.223,0.215,0.220,0.121,0.077,west-southwest,4.1,No
2022/05/04,22:50,0.151,0.141,0.222,0.216,0.221,0.121,0.079,southwest,2.6,No
2022/05/04,23:00,0.152,0.141,0.221,0.216,0.220,0.121,0.079,south-southwest,1.5,No
2022/05/04,23:10,0.152,0.141,0.223,0.215,0.221,0.121,0.077,southwest,1.9,No
2022/05/04,23:20,0.150,0.141,0.222,0.216,0.220,0.121,0.078,west-southwest,1.7,No
2022/05/04,23:30,0.152,0.141,0.223,0.216,0.221,0.121,0.079,south,1.6,No
2022/05/04,23:40,0.151,0.141,0.223,0.215,0.220,0.122,0.078,south-southwest,1.8,No
2022/05/04,23:50,0.152,0.142,0.223,0.218,0.222,0.123,0.078,south-southeast,1.0,No
